FW4628 Weather Reports


Display with metric or nautical units.
time (UTC)temp
F
wind
direction
speed
MPH
gust
MPH
rain 1hr
in
rain 24hr
in
rain mn
in
humidity
%
barometer
mb
20260508175527 58 206 0.0 0.0 0.00 0.00 0.00 38 1012.3
20260508175422 58 215 0.0 0.0 0.00 0.00 0.00 38 1012.3
20260508175102 58 215 0.0 0.0 0.00 0.00 0.00 38 1012.3
20260508174913 58 216 0.0 0.0 0.00 0.00 0.00 37 1012.3
20260508174542 58 240 0.0 0.0 0.00 0.00 0.00 35 1012.2
20260508174402 58 215 0.0 0.0 0.00 0.00 0.00 35 1012.2
20260508174059 57 217 0.0 0.0 0.00 0.00 0.00 35 1012.2
20260508173857 57 207 0.0 0.0 0.00 0.00 0.00 35 1012.2
20260508173541 56 254 0.0 0.0 0.00 0.00 0.00 35 1012.2
20260508173420 56 171 0.0 0.0 0.00 0.00 0.00 35 1012.2
20260508173051 56 239 0.0 0.0 0.00 0.00 0.00 34 1012.1
20260508172920 56 224 0.0 0.0 0.00 0.00 0.00 33 1012.2
20260508172511 55 159 0.0 0.0 0.00 0.00 0.00 32 1012.1
20260508172414 56 155 0.0 0.0 0.00 0.00 0.00 33 1012.1
20260508172048 55 219 0.0 0.0 0.00 0.00 0.00 33 1012.0
20260508171904 55 209 0.0 0.0 0.00 0.00 0.00 34 1012.0
20260508171518 55 234 0.0 0.0 0.00 0.00 0.00 33 1011.9
20260508171424 56 240 0.0 0.0 0.00 0.00 0.00 33 1011.9
20260508171049 55 223 0.0 0.0 0.00 0.00 0.00 33 1011.9
20260508170908 56 222 0.0 0.0 0.00 0.00 0.00 33 1011.9
20260508170507 55 265 0.0 0.0 0.00 0.00 0.00 33 1011.7
20260508170404 55 273 0.0 0.0 0.00 0.00 0.00 32 1011.7
20260508170049 55 235 0.0 0.0 0.00 0.00 0.00 30 1011.7
20260508165923 55 241 0.0 0.0 0.00 0.00 0.00 30 1011.8
20260508165552 55 241 0.0 0.0 0.00 0.00 0.00 30 1011.7
20260508165357 55 232 0.0 0.0 0.00 0.00 0.00 30 1011.7
20260508165032 54 229 0.0 0.0 0.00 0.00 0.00 30 1011.6
20260508164856 55 227 0.0 0.0 0.00 0.00 0.00 30 1011.6
20260508164510 54 235 0.0 0.0 0.00 0.00 0.00 30 1011.3
20260508164418 55 234 0.0 0.0 0.00 0.00 0.00 30 1011.4
20260508164036 54 189 0.0 0.0 0.00 0.00 0.00 29 1011.3
20260508163913 55 190 0.0 0.0 0.00 0.00 0.00 29 1011.3
20260508163504 54 189 0.0 0.0 0.00 0.00 0.00 29 1011.2
20260508163409 54 189 0.0 0.0 0.00 0.00 0.00 30 1011.3
20260508163037 54 190 0.0 0.0 0.00 0.00 0.00 29 1011.3
20260508162903 55 186 0.0 0.0 0.00 0.00 0.00 29 1011.4
20260508162559 54 169 0.0 0.0 0.00 0.00 0.00 29 1011.3
20260508162401 54 169 0.0 0.0 0.00 0.00 0.00 29 1011.4
20260508162033 54 184 0.0 0.0 0.00 0.00 0.00 28 1011.3
20260508161924 54 210 0.0 0.0 0.00 0.00 0.00 28 1011.5
20260508161551 54 220 0.0 0.0 0.00 0.00 0.00 29 1011.4
20260508161425 54 238 0.0 0.0 0.00 0.00 0.00 28 1011.4
20260508161011 54 191 0.0 0.0 0.00 0.00 0.00 27 1011.1
20260508160911 54 155 0.0 0.0 0.00 0.00 0.00 27 1011.2
20260508160541 54 198 0.0 0.0 0.00 0.00 0.00 28 1011.2
20260508160403 54 207 0.0 0.0 0.00 0.00 0.00 28 1011.2
20260508160007 54 194 0.0 0.0 0.00 0.00 0.00 29 1011.2
20260508155857 54 194 0.0 0.0 0.00 0.00 0.00 28 1011.2
20260508155545 54 231 0.0 0.0 0.00 0.00 0.00 28 1011.2
20260508155357 54 241 0.0 0.0 0.00 0.00 0.00 27 1011.2
20260508155015 54 221 0.0 0.0 0.00 0.00 0.00 27 1011.2
20260508154918 54 227 0.0 0.0 0.00 0.00 0.00 27 1011.3
20260508154548 54 244 0.0 0.0 0.00 0.00 0.00 26 1011.3
20260508154407 54 190 0.0 0.0 0.00 0.00 0.00 25 1011.3
20260508154020 54 186 0.0 0.0 0.00 0.00 0.00 24 1011.2
20260508153857 54 185 0.0 0.0 0.00 0.00 0.00 24 1011.2
20260508153553 53 206 0.0 0.0 0.00 0.00 0.00 24 1011.0
20260508153421 54 207 0.0 0.0 0.00 0.00 0.00 24 1011.1
20260508153027 53 194 0.0 0.0 0.00 0.00 0.00 23 1011.0
20260508152904 53 194 0.0 0.0 0.00 0.00 0.00 23 1011.1
20260508152553 53 193 0.0 0.0 0.00 0.00 0.00 22 1011.1
20260508152424 53 194 0.0 0.0 0.00 0.00 0.00 20 1011.2
20260508152003 52 195 0.0 0.0 0.00 0.00 0.00 18 1011.2
20260508151924 53 195 0.0 0.0 0.00 0.00 0.00 17 1011.2
20260508054909 63 19 0.0 0.0 0.00 0.00 0.00 55 1006.9
20260508054511 63 24 0.0 0.0 0.00 0.00 0.00 55 1006.9
20260508054412 63 24 0.0 0.0 0.00 0.00 0.00 55 1006.9
20260508054029 63 13 0.0 0.0 0.00 0.00 0.00 54 1006.9
20260508053945 64 13 0.0 0.0 0.00 0.00 0.00 54 1006.8
20260508053543 63 5 0.0 0.0 0.00 0.00 0.00 54 1006.8
20260508053412 64 32 0.0 0.0 0.00 0.00 0.00 54 1006.8
20260508053004 63 23 0.0 0.0 0.00 0.00 0.00 54 1006.8
20260508052901 64 23 0.0 0.0 0.00 0.00 0.00 54 1006.8
20260508052542 63 23 0.0 0.0 0.00 0.00 0.00 54 1006.9
20260508052359 64 22 0.0 0.0 0.00 0.00 0.00 54 1006.9
20260508052016 63 22 0.0 0.0 0.00 0.00 0.00 54 1006.8
20260508051913 64 23 0.0 0.0 0.00 0.00 0.00 54 1006.8
20260508051545 64 23 0.0 0.0 0.00 0.00 0.00 54 1006.8
20260508051405 64 23 0.0 0.0 0.00 0.00 0.00 54 1006.8
20260508051017 64 23 0.0 0.0 0.00 0.00 0.00 54 1006.8
20260508050905 64 19 0.0 0.0 0.00 0.00 0.00 54 1006.8
20260508050547 64 11 0.0 0.0 0.00 0.00 0.00 54 1006.8
20260508050357 64 11 0.0 0.0 0.00 0.00 0.00 54 1006.8
20260508050022 64 11 0.0 0.0 0.00 0.00 0.00 54 1006.8
20260508045919 64 11 0.0 0.0 0.00 0.00 0.00 54 1006.9
20260508045547 64 11 0.0 0.0 0.00 0.00 0.00 54 1006.8
20260508045408 65 11 0.0 0.0 0.00 0.00 0.00 54 1006.8
20260508045031 64 11 0.0 0.0 0.00 0.00 0.00 54 1006.8
20260508044915 65 11 0.0 0.0 0.00 0.00 0.00 54 1006.8
20260508044504 64 11 0.0 0.0 0.00 0.00 0.00 54 1006.8
20260508044411 65 12 0.0 0.0 0.00 0.00 0.00 54 1006.8
20260508044037 64 11 0.0 0.0 0.00 0.00 0.00 54 1006.8
20260508043902 65 11 0.0 0.0 0.00 0.00 0.00 54 1006.8
20260508043503 65 11 0.0 0.0 0.00 0.00 0.00 54 1006.7
20260508043426 65 13 0.0 0.0 0.00 0.00 0.00 53 1006.8
20260508043053 65 17 0.0 0.0 0.00 0.00 0.00 53 1006.7
20260508042914 65 17 0.0 0.0 0.00 0.00 0.00 53 1006.7
20260508042505 65 11 0.0 0.0 0.00 0.00 0.00 53 1006.7
20260508042405 65 11 0.0 0.0 0.00 0.00 0.00 53 1006.7
20260508042036 65 15 0.0 0.0 0.00 0.00 0.00 53 1006.6
20260508041925 65 15 0.0 0.0 0.00 0.00 0.00 53 1006.6
20260508041505 65 17 0.0 0.0 0.00 0.00 0.00 53 1006.6
20260508041417 65 17 0.0 0.0 0.00 0.00 0.00 53 1006.6
20260508041037 65 17 0.0 0.0 0.00 0.00 0.00 53 1006.6
20260508040908 65 360 0.0 0.0 0.00 0.00 0.00 53 1006.6
20260508040509 65 360 0.0 0.0 0.00 0.00 0.00 52 1006.6
20260508040409 66 360 0.0 0.0 0.00 0.00 0.00 52 1006.5
20260508040042 65 360 0.0 0.0 0.00 0.00 0.00 52 1006.5
20260508035932 66 360 0.0 0.0 0.00 0.00 0.00 52 1006.5
20260508035557 66 360 0.0 0.0 0.00 0.00 0.00 51 1006.5
20260508035409 66 360 0.0 0.0 0.00 0.00 0.00 51 1006.5
20260508035028 66 360 0.0 0.0 0.00 0.00 0.00 51 1006.5
20260508034900 67 360 0.0 0.0 0.00 0.00 0.00 51 1006.5
20260508034610 66 360 0.0 0.0 0.00 0.00 0.00 50 1006.4
20260508034400 67 347 0.0 0.0 0.00 0.00 0.00 50 1006.5
20260508034029 67 347 0.0 0.0 0.00 0.00 0.00 49 1006.4
20260508033853 67 347 0.0 0.0 0.00 0.00 0.00 49 1006.4
20260508033511 67 347 0.0 0.0 0.00 0.00 0.00 49 1006.3
20260508033420 68 347 0.0 0.0 0.00 0.00 0.00 49 1006.3
20260508033049 67 17 0.0 0.0 0.00 0.00 0.00 48 1006.2
20260508032916 68 23 0.0 0.0 0.00 0.00 0.00 48 1006.2
20260508032514 68 23 0.0 0.0 0.00 0.00 0.00 48 1006.2
20260508032406 68 23 0.0 0.0 0.00 0.00 0.00 47 1006.2
20260508032049 68 23 0.0 0.0 0.00 0.00 0.00 47 1006.2
20260508031859 68 23 0.0 0.0 0.00 0.00 0.00 48 1006.1
20260508031522 68 23 0.0 0.0 0.00 0.00 0.00 48 1006.1
20260508031447 69 23 0.0 0.0 0.00 0.00 0.00 48 1006.0
20260508031039 68 23 0.0 0.0 0.00 0.00 0.00 48 1006.1
20260508030916 69 23 0.0 0.0 0.00 0.00 0.00 48 1006.0
20260508030502 68 23 0.0 0.0 0.00 0.00 0.00 47 1006.0
20260508030408 69 23 0.0 0.0 0.00 0.00 0.00 47 1006.0
20260508030040 69 23 0.0 0.0 0.00 0.00 0.00 47 1006.0
20260508025858 69 35 0.0 0.0 0.00 0.00 0.00 47 1006.0
20260508025506 69 35 0.0 0.0 0.00 0.00 0.00 46 1006.0
20260508025357 69 35 0.0 0.0 0.00 0.00 0.00 46 1006.0
20260508025017 69 35 0.0 0.0 0.00 0.00 0.00 46 1006.0
20260508024937 70 35 0.0 0.0 0.00 0.00 0.00 46 1006.0
20260508024526 69 35 0.0 0.0 0.00 0.00 0.00 46 1006.0
20260508024405 70 35 0.0 0.0 0.00 0.00 0.00 46 1006.0
20260508024100 69 35 0.0 0.0 0.00 0.00 0.00 45 1006.1
20260508023926 70 35 0.0 0.0 0.00 0.00 0.00 45 1006.0
20260508023504 69 35 0.0 0.0 0.00 0.00 0.00 45 1006.1
20260508023400 70 35 0.0 0.0 0.00 0.00 0.00 45 1006.1
20260508023039 70 35 0.0 0.0 0.00 0.00 0.00 45 1006.1
20260508022858 70 36 0.0 0.0 0.00 0.00 0.00 45 1006.1
20260508022523 70 36 0.0 0.0 0.00 0.00 0.00 45 1006.1
20260508022425 70 36 0.0 0.0 0.00 0.00 0.00 44 1006.1
20260508022036 70 41 0.0 0.0 0.00 0.00 0.00 44 1006.1
20260508021926 71 41 0.0 0.0 0.00 0.00 0.00 44 1006.1
20260508021554 70 28 0.0 0.0 0.00 0.00 0.00 44 1006.0
20260508021354 71 15 0.0 0.0 0.00 0.00 0.00 43 1006.0
20260508021024 71 46 0.0 0.0 0.00 0.00 0.00 43 1006.0
20260508020920 71 47 0.0 0.0 0.00 0.00 0.00 43 1006.0
20260508020535 71 34 0.0 0.0 0.00 0.00 0.00 42 1006.0
20260508020414 72 43 0.0 0.0 0.00 0.00 0.00 42 1006.0
20260508020105 71 28 0.0 0.0 0.00 0.00 0.00 42 1006.1
20260508015904 72 5 0.0 0.0 0.00 0.00 0.00 41 1006.2
20260508015535 72 360 0.0 0.0 0.00 0.00 0.00 41 1006.2
20260508015357 72 10 0.0 0.0 0.00 0.00 0.00 41 1006.2
20260508015008 72 41 0.0 0.0 0.00 0.00 0.00 39 1006.3
20260508014941 73 9 0.0 0.0 0.00 0.00 0.00 39 1006.3
20260508014512 73 355 0.0 0.0 0.00 0.00 0.00 38 1006.3
20260508014414 73 342 0.0 0.0 0.00 0.00 0.00 38 1006.3
20260508014046 73 281 0.0 0.0 0.00 0.00 0.00 38 1006.3
20260508013907 74 280 0.0 0.0 0.00 0.00 0.00 38 1006.3
20260508013525 73 281 0.0 0.0 0.00 0.00 0.00 38 1006.3
20260508013401 73 281 0.0 0.0 0.00 0.00 0.00 37 1006.4
20260508013059 72 281 0.0 0.0 0.00 0.00 0.00 38 1006.4
20260508012919 73 281 0.0 0.0 0.00 0.00 0.00 38 1006.4
20260508012519 72 281 0.0 0.0 0.00 0.00 0.00 37 1006.4
20260508012408 73 279 0.0 0.0 0.00 0.00 0.00 38 1006.4
20260508012053 72 279 0.0 0.0 0.00 0.00 0.00 37 1006.4
20260508011905 72 279 0.0 0.0 0.00 0.00 0.00 37 1006.5
20260508011605 72 279 0.0 0.0 0.00 0.00 0.00 37 1006.4
20260508011401 72 279 0.0 0.0 0.00 0.00 0.00 38 1006.4
20260508011033 71 17 0.0 0.0 0.00 0.00 0.00 37 1006.5
20260508010924 72 5 0.0 0.0 0.00 0.00 0.00 37 1006.5
20260508010545 71 52 0.0 0.0 0.00 0.00 0.00 38 1006.5
20260508010358 72 51 0.0 0.0 0.00 0.00 0.00 37 1006.5
20260508010018 71 5 0.0 0.0 0.00 0.00 0.00 38 1006.6
20260508005919 72 5 0.0 0.0 0.00 0.00 0.00 37 1006.6
20260508005556 72 22 0.0 0.0 0.00 0.00 0.00 37 1006.7
20260508005414 72 99 0.0 0.0 0.00 0.00 0.00 36 1006.7
20260508005017 71 99 0.0 0.0 0.00 0.00 0.00 36 1006.7
20260508004908 71 99 0.0 0.0 0.00 0.00 0.00 36 1006.7
20260508004547 71 99 0.0 0.0 0.00 0.00 0.00 35 1006.7
20260508004445 71 99 0.0 0.0 0.00 0.00 0.00 36 1006.7
20260508004101 71 88 0.0 0.0 0.00 0.00 0.00 35 1006.8
20260508003913 72 54 0.0 0.0 0.00 0.00 0.00 34 1006.8
20260508003531 71 18 0.0 0.0 0.00 0.00 0.00 35 1006.8
20260508003405 72 44 0.0 0.0 0.00 0.00 0.00 34 1006.9
20260508003102 71 54 0.0 0.0 0.00 0.00 0.00 34 1006.9
20260508002926 72 55 0.0 0.0 0.00 0.00 0.00 34 1006.9
20260508002525 71 265 0.0 0.0 0.00 0.00 0.00 35 1006.9
20260508002419 71 265 0.0 0.0 0.00 0.00 0.00 36 1006.9
20260508002007 71 265 0.0 0.0 0.00 0.00 0.00 35 1006.9
20260508001921 71 265 0.0 0.0 0.00 0.00 0.00 35 1006.9
20260508001601 71 265 0.0 0.0 0.00 0.00 0.00 35 1006.9
20260508001412 72 265 0.0 0.0 0.00 0.00 0.00 36 1006.9
20260508001003 71 266 0.0 0.0 0.00 0.00 0.00 35 1007.0
20260508000903 71 265 0.0 0.0 0.00 0.00 0.00 35 1007.0
20260508000538 71 39 0.0 0.0 0.00 0.00 0.00 35 1007.1
20260508000427 71 39 0.0 0.0 0.00 0.00 0.00 35 1007.1
20260508000007 71 42 0.0 0.0 0.00 0.00 0.00 35 1007.1
20260507235918 71 42 0.0 0.0 0.00 0.00 0.00 35 1007.1
20260507235519 70 331 0.0 0.0 0.00 0.00 0.00 35 1007.1
20260507235438 71 355 0.0 0.0 0.00 0.00 0.00 35 1007.1
20260507235033 70 350 0.0 0.0 0.00 0.00 0.00 35 1007.1
20260507234907 71 9 0.0 0.0 0.00 0.00 0.00 35 1007.1
20260507234558 70 24 0.0 0.0 0.00 0.00 0.00 35 1007.2
20260507234359 71 355 0.0 0.0 0.00 0.00 0.00 35 1007.2
20260507234056 70 27 0.0 0.0 0.00 0.00 0.00 36 1007.2
20260507233925 70 36 0.0 0.0 0.00 0.00 0.00 36 1007.3
20260507233542 70 80 0.0 0.0 0.00 0.00 0.00 37 1007.3
20260507233357 71 310 0.0 0.0 0.00 0.00 0.00 37 1007.3
20260507233018 70 329 0.0 0.0 0.00 0.00 0.00 37 1007.3
20260507232941 71 355 0.0 0.0 0.00 0.00 0.00 38 1007.3
20260507232519 70 30 0.0 0.0 0.00 0.00 0.00 38 1007.5
20260507232413 71 30 0.0 0.0 0.00 0.00 0.00 38 1007.5
20260507232101 71 254 0.0 0.0 0.00 0.00 0.00 42 1007.5
20260507231908 71 266 0.0 0.0 0.00 0.00 0.00 41 1007.5
20260507231537 71 265 0.0 0.0 0.00 0.00 0.00 41 1007.5
20260507231359 71 256 0.0 0.0 0.00 0.00 0.00 42 1007.6
20260507231005 70 256 0.0 0.0 0.00 0.00 0.00 42 1007.6
20260507230921 71 256 0.0 0.0 0.00 0.00 0.00 43 1007.7
20260507230508 70 256 0.0 0.0 0.00 0.00 0.00 42 1007.7
20260507230413 71 248 0.0 0.0 0.00 0.00 0.00 42 1007.7
20260507230041 70 349 0.0 0.0 0.00 0.00 0.00 42 1007.7
20260507225906 71 346 0.0 0.0 0.00 0.00 0.00 42 1007.7
20260507225515 70 16 0.0 0.0 0.00 0.00 0.00 42 1007.7
20260507225426 71 32 0.0 0.0 0.00 0.00 0.00 42 1007.7
20260507225045 70 254 0.0 0.0 0.00 0.00 0.00 43 1007.8
20260507224916 70 254 0.0 0.0 0.00 0.00 0.00 43 1007.9
20260507224510 70 293 0.0 0.0 0.00 0.00 0.00 43 1007.9
20260507224404 70 360 0.0 0.0 0.00 0.00 0.00 43 1008.0
20260507224044 70 265 0.0 0.0 0.00 0.00 0.00 43 1007.9
20260507223855 70 240 0.0 0.0 0.00 0.00 0.00 43 1008.0
20260507223519 69 173 0.0 0.0 0.00 0.00 0.00 43 1008.0
20260507223420 70 195 0.0 0.0 0.00 0.00 0.00 42 1008.0
20260507223048 69 195 0.0 0.0 0.00 0.00 0.00 43 1008.0
20260507222908 69 225 0.0 0.0 0.00 0.00 0.00 44 1008.1
20260507222523 69 225 0.0 0.0 0.00 0.00 0.00 44 1008.1
20260507222359 69 274 0.0 0.0 0.00 0.00 0.00 43 1008.1
20260507222055 69 230 0.0 0.0 0.00 0.00 0.00 43 1008.2
20260507221925 70 282 0.0 0.0 0.00 0.00 0.00 44 1008.2
20260507221521 69 223 0.0 0.0 0.00 0.00 0.00 42 1008.2
20260507221413 70 223 0.0 0.0 0.00 0.00 0.00 41 1008.2
20260507221050 69 234 0.0 0.0 0.00 0.00 0.00 41 1008.2
20260507220904 70 321 0.0 0.0 0.00 0.00 0.00 42 1008.3
20260507220521 69 251 0.0 0.0 0.00 0.00 0.00 42 1008.2
20260507220427 70 345 0.0 0.0 0.00 0.00 0.00 42 1008.3
20260507220054 69 250 0.0 0.0 0.00 0.00 0.00 41 1008.3
20260507215916 70 210 0.0 0.0 0.00 0.00 0.00 40 1008.3
20260507215528 69 222 0.0 0.0 0.00 0.00 0.00 40 1008.3
20260507215418 70 246 0.0 0.0 0.00 0.00 0.00 40 1008.4
20260507215048 69 250 0.0 0.0 0.00 0.00 0.00 40 1008.4
20260507214916 69 250 0.0 0.0 0.00 0.00 0.00 39 1008.5
20260507214507 69 250 0.0 0.0 0.00 0.00 0.00 39 1008.5
20260507214407 69 250 0.0 0.0 0.00 0.00 0.00 39 1008.5
20260507214042 68 273 0.0 0.0 0.00 0.00 0.00 40 1008.5
20260507213901 69 256 0.0 0.0 0.00 0.00 0.00 40 1008.6
20260507213523 68 259 0.0 0.0 0.00 0.00 0.00 41 1008.6
20260507213401 69 259 0.0 0.0 0.00 0.00 0.00 42 1008.6
20260507213048 68 282 0.0 0.0 0.00 0.00 0.00 42 1008.6
20260507212941 68 282 0.0 0.0 0.00 0.00 0.00 42 1008.7
20260507212601 68 15 0.0 0.0 0.00 0.00 0.00 42 1008.6
20260507212411 68 252 0.0 0.0 0.00 0.00 0.00 43 1008.8
20260507212029 67 267 0.0 0.0 0.00 0.00 0.00 42 1008.7
20260507211913 67 267 0.0 0.0 0.00 0.00 0.00 42 1008.8
20260507211540 67 267 0.0 0.0 0.00 0.00 0.00 42 1008.7
20260507211436 67 244 0.0 0.0 0.00 0.00 0.00 43 1008.8
20260507211049 67 223 0.0 0.0 0.00 0.00 0.00 44 1008.8
20260507210904 67 222 0.0 0.0 0.00 0.00 0.00 44 1008.9
20260507210519 67 260 0.0 0.0 0.00 0.00 0.00 44 1008.9
20260507210418 67 259 0.0 0.0 0.00 0.00 0.00 43 1008.9
20260507210032 66 230 0.0 0.0 0.00 0.00 0.00 42 1009.0
20260507205908 67 242 0.0 0.0 0.00 0.00 0.00 42 1009.0
20260507205557 66 248 0.0 0.0 0.00 0.00 0.00 43 1009.0
20260507205403 67 248 0.0 0.0 0.00 0.00 0.00 42 1009.1
20260507205032 66 207 0.0 0.0 0.00 0.00 0.00 43 1009.1
20260507204856 67 245 0.0 0.0 0.00 0.00 0.00 43 1009.2
20260507204502 66 312 0.0 0.0 0.00 0.00 0.00 43 1009.2
20260507204422 66 39 0.0 0.0 0.00 0.00 0.00 43 1009.2
20260507204034 66 225 0.0 0.0 0.00 0.00 0.00 42 1009.2
20260507203913 66 238 0.0 0.0 0.00 0.00 0.00 42 1009.3
20260507203559 66 242 0.0 0.0 0.00 0.00 0.00 41 1009.3
20260507203405 66 217 0.0 0.0 0.00 0.00 0.00 42 1009.4
20260507203033 65 215 0.0 0.0 0.00 0.00 0.00 43 1009.3
20260507202924 66 215 0.0 0.0 0.00 0.00 0.00 43 1009.4
20260507202559 65 215 0.0 0.0 0.00 0.00 0.00 43 1009.4
20260507202414 66 98 0.0 0.0 0.00 0.00 0.00 43 1009.5
20260507202038 65 295 0.0 0.0 0.00 0.00 0.00 42 1009.5
20260507201907 66 295 0.0 0.0 0.00 0.00 0.00 43 1009.6
20260507201506 65 251 0.0 0.0 0.00 0.00 0.00 43 1009.6
20260507201409 65 250 0.0 0.0 0.00 0.00 0.00 43 1009.6
20260507201039 65 238 0.0 0.0 0.00 0.00 0.00 43 1009.6
20260507200857 65 279 0.0 0.0 0.00 0.00 0.00 43 1009.6
20260507200514 64 217 0.0 0.0 0.00 0.00 0.00 43 1009.7
20260507200419 65 217 0.0 0.0 0.00 0.00 0.00 43 1009.7
20260507200043 64 217 0.0 0.0 0.00 0.00 0.00 43 1009.7
20260507195914 65 202 0.0 0.0 0.00 0.00 0.00 43 1009.7
20260507195507 65 263 0.0 0.0 0.00 0.00 0.00 42 1009.7
20260507195404 65 171 0.0 0.0 0.00 0.00 0.00 42 1009.8
20260507195051 64 158 0.0 0.0 0.00 0.00 0.00 42 1009.7
20260507194927 65 158 0.0 0.0 0.00 0.00 0.00 42 1009.9
20260507194556 64 158 0.0 0.0 0.00 0.00 0.00 42 1009.8
20260507194408 65 158 0.0 0.0 0.00 0.00 0.00 42 1009.9
20260507194030 64 167 0.0 0.0 0.00 0.00 0.00 43 1009.9
20260507193927 64 236 0.0 0.0 0.00 0.00 0.00 43 1009.9
20260507193541 63 236 0.0 0.0 0.00 0.00 0.00 43 1010.0
20260507193357 63 236 0.0 0.0 0.00 0.00 0.00 43 1010.0
20260507193012 63 236 0.0 0.0 0.00 0.00 0.00 43 1010.1
20260507192919 63 128 0.0 0.0 0.00 0.00 0.00 43 1010.1
20260507192545 63 146 0.0 0.0 0.00 0.00 0.00 43 1010.2
20260507192409 63 146 0.0 0.0 0.00 0.00 0.00 42 1010.2
20260507192013 63 146 0.0 0.0 0.00 0.00 0.00 42 1010.2
20260507191905 63 146 0.0 0.0 0.00 0.00 0.00 42 1010.2
20260507191553 63 146 0.0 0.0 0.00 0.00 0.00 41 1010.2
20260507191401 63 160 0.0 0.0 0.00 0.00 0.00 42 1010.2
20260507191023 62 160 0.0 0.0 0.00 0.00 0.00 42 1010.2
20260507190922 63 160 0.0 0.0 0.00 0.00 0.00 42 1010.3
20260507190533 62 159 0.0 0.0 0.00 0.00 0.00 42 1010.3
20260507190409 63 207 0.0 0.0 0.00 0.00 0.00 42 1010.3
20260507190058 62 207 0.0 0.0 0.00 0.00 0.00 42 1010.3
20260507185902 62 207 0.0 0.0 0.00 0.00 0.00 42 1010.4
20260507185526 62 248 0.0 0.0 0.00 0.00 0.00 42 1010.4
20260507185421 62 248 0.0 0.0 0.00 0.00 0.00 42 1010.4
20260507185056 62 249 0.0 0.0 0.00 0.00 0.00 41 1010.5
20260507184910 62 261 0.0 0.0 0.00 0.00 0.00 41 1010.5
20260507184529 62 234 0.0 0.0 0.00 0.00 0.00 41 1010.5
20260507184434 62 255 0.0 0.0 0.00 0.00 0.00 41 1010.5
20260507184042 62 339 0.0 0.0 0.00 0.00 0.00 41 1010.5
20260507183931 62 14 0.0 0.0 0.00 0.00 0.00 40 1010.6
20260507183553 62 297 0.0 0.0 0.00 0.00 0.00 40 1010.5
20260507183404 62 311 0.0 0.0 0.00 0.00 0.00 40 1010.6
20260507183025 61 293 0.0 0.0 0.00 0.00 0.00 40 1010.6
20260507182900 61 38 0.0 0.0 0.00 0.00 0.00 40 1010.6
20260507182600 61 351 0.0 0.0 0.00 0.00 0.00 39 1010.6
20260507182423 61 53 0.0 0.0 0.00 0.00 0.00 40 1010.7
20260507182019 60 50 0.0 0.0 0.00 0.00 0.00 40 1010.7
20260507181911 60 50 0.0 0.0 0.00 0.00 0.00 40 1010.7
20260507181600 59 50 0.0 0.0 0.00 0.00 0.00 40 1010.8
20260507181401 60 50 0.0 0.0 0.00 0.00 0.00 40 1010.8
20260507181019 59 273 0.0 0.0 0.00 0.00 0.00 40 1010.9
20260507180921 60 273 0.0 0.0 0.00 0.00 0.00 40 1010.9
20260507180555 59 319 0.0 0.0 0.00 0.00 0.00 40 1010.9
20260507180416 59 300 0.0 0.0 0.00 0.00 0.00 39 1010.9
20260507180028 59 5 0.0 0.0 0.00 0.00 0.00 39 1010.9
20260507175907 59 11 0.0 0.0 0.00 0.00 0.00 39 1010.9
20260507175553 58 5 0.0 0.0 0.00 0.00 0.00 40 1010.9